Regional Weather Roundup
Issued by NWS Newport/Morehead, NC

Current Version | Previous Version | Text Only | Print | Product List | Glossary Off
Versions: 1 2 3 4 5 6 7 8 9 10 11 12 13 14 15 16 17 18 19 20 21 22 23 24 25 26 27 28 29 30 31 32 33 34 35 36 37 38 39 40 41 42 43 44 45 46 47 48 49 50

000
ASUS42 KMHX 012025
RWRMHX
WEATHER ROUNDUP FOR EASTERN NORTH CAROLINA
NATIONAL WEATHER SERVICE NEWPORT/MOREHEAD CITY NC
400 PM EDT SUN MAY 01 2016

NOTE: "FAIR" INDICATES FEW OR NO CLOUDS BELOW 12,000 FEET
WITH NO SIGNIFICANT WEATHER AND/OR OBSTRUCTIONS TO VISIBILITY

NCZ015>017-031-032-045>047-102-103-012100-
NORTH COAST

CITY           SKY/WX    TMP DP  RH WIND       PRES   REMARKS
EDENTON        PTSUNNY   74  71  93 S5        30.04F
ELIZABETH CITY CLOUDY    72  68  87 SW6       30.05F
KITTY HAWK     CLOUDY    75  64  68 S9        30.04F
MANTEO         NOT AVBL

$$

NCZ045>047-081-094-103-104-012100-
CENTRAL COAST

CITY           SKY/WX    TMP DP  RH WIND       PRES   REMARKS
FRISCO         CLOUDY    73  66  78 S7        30.10F
SWANQUARTER    NOT AVBL

$$

NCZ095-097-098-100-101-012100-
SOUTHERN COAST

CITY           SKY/WX    TMP DP  RH WIND       PRES   REMARKS
BEAUFORT       MOSUNNY   75  65  70 SW10      30.10S
CEDAR ISLAND   NOT AVBL
JACKSONVILLE   LGT RAIN  70  67  90 S5        30.08F FOG
PINEY ISLAND   NOT AVBL
WILMINGTON     LGT RAIN  70  68  93 NE9       30.09F


$$

NCZ011>013-027>030-043-044-078>080-089-090>093-098-012100-
COASTAL PLAIN

CITY           SKY/WX    TMP DP  RH WIND       PRES   REMARKS
AHOSKIE        CLOUDY    72  65  79 S8        30.03F
CLINTON        CLOUDY    72  69  90 S7        30.04F
ELIZABETHTOWN  CLOUDY    71  69  94 S8        30.04F
GOLDSBORO      CLOUDY    72  72 100 S13       30.02S
GREENVILLE     LGT RAIN  70  68  94 S9        30.07S
HAVELOCK       PTSUNNY   76  62  62 SW12      30.09F
KENANSVILLE    CLOUDY    71  66  85 S7        30.05F
KINSTON        CLOUDY    70  68  94 S9        30.05F
NEW BERN       CLOUDY    72  67  84 S5        30.08F
RICHLANDS      LGT RAIN  69  68  96 SE9       30.07F
ROCKY MOUNT    PTSUNNY   71  67  87 S9        30.04F
WASHINGTON     LGT RAIN  69  66  89 SW7       30.06S
WHITEVILLE     RAIN      68  65  90 S5        30.05F

$$

AMZ130-135-150-152-154-156-158-170-250-252-270-ANZ085-086-088-633-658-670-012100-
MARINE OBSERVATIONS

STATION/POSITION TIME  TEMP    WIND        PRES    WAVE   SWELL
                       AIR SEA DIR/SP/G            HT/PER HT/PER
                 (UTC) (F)     (DEG/KT/KT) (MB)    (FT/S) (FT/S)
CHESAPEAKE LIGHT 2000   57     170/ 13/ 14 1017.5
64 E VA BEACH    1950   59 53  190/ 10/ 12 1018.3    4/10   3/10
DUCK             2000   72 67  190/  9/ 11 1016.8
2 E DUCK         1911      60                N/A     3/ 9   2/11
OREGON INLET     2000   70 63  180/ 10/ 12 1018.2
13E OREGON INLT  2000      59                N/A     5/10   5/10
HATTERAS CG      2000   74 67  170/  6/ 11 1018.8
DIAMOND BUOY     1950   74 74  200/ 14/ 16 1019.0    4/10   3/10
CAPE LOOKOUT     2000   76     240/  7/ 11 1018.9
BEAUFORT LAB     2000   74 66  230/  4/  8 1018.4
30 SE NEW RVR IN 1925      72                N/A     4/11   2/11
27 SE WRIGHTSVLE 2008   74 72  190/  4/  6 1018.3
5 SE WRIGHTSVLE  2008   70 70   40/  6/ 12 1019.3
225 S CAPE HAT   1950   73     140/  8/  8 1020.3    4/ 9   3/ 9
41 SE CHARLESTON 1950   76 74  170/ 10/ 10 1017.4    4/11   3/11

$$



USA.gov is the U.S. government's official web portal to all federal, state and local government web resources and services.